THORAD AGENA D DEB

Satellite information

Favourite Embed

Satellite Type and Status

DEBRISIN ORBIT

Key statistics

Satellite THORAD AGENA D DEB at a glance.

Uptime

20528

Days in orbit

Revolutions

≈ 14.4

Per day

Orbit

LEO

Low Earth Orbit

Inclination

70.1

Latest

Satellite identification and parameters

Extended collection of information and parameters for THORAD AGENA D DEB.

Object identification

Identified? True

Debris? True

Object name: THORAD AGENA D DEB

International designator: 1969-082HY

Object number (NORAD): 5519

Object ID (CCSDS): 5519

Country: UNITED STATES OF AMERICA (US)

Current information (Y/N): Y

RCS size: SMALL

Orbital parameters

Period: 99.755 minutes

Inclination: 70.0562 deg

SMA: 7124.965 km

Apoapsis: 777.901 km

Periapsis: 715.76 km

RAAN: 47.7783 deg

Eccentricy: 0.0043608

Argument of periapsis: 126.3029 deg

Mean anomaly: 234.2142 deg

Mean motion: 14.43539402 rev/day

Mean motion (dot): 0.00001753 rev/day2

B* drag term: 0.00052883393 1/REarth

Two-line elements (TLE)

Creation date: Dec. 11, 2025, 7:14 p.m.

Reference frame: TEME

Reference center: EARTH

Epoch: Dec. 11, 2025, 1:55 p.m. UTC

TLE line 0: 0 THORAD AGENA D DEB

TLE line 1: 1 05519U 69082HY 25345.58034739 .00001753 00000-0 52883-3 0 9998

TLE line 2: 2 05519 70.0562 47.7783 0043608 126.3029 234.2142 14.43539402924011

Live tracking on map

Real-time ground track for satellite THORAD AGENA D DEB.

In-orbit conjunctions

A list of the most updated potential collisions computed for object THORAD AGENA D DEB.

Target Orbit TCA Probability of collision Miss distance Type
FENGYUN 1C DEB SSO 2025-10-11 21:12:19 0.0001264393 326.0 (m) DEBRIS
COSMOS 2251 DEB LEO 2025-10-10 05:39:46 0.0001131825 793.0 (m) DEBRIS
CZ-4B R/B LEO 2025-09-08 22:38:35 0.0002809994 869.0 (m) ROCKET BODY
ITAMSAT SSO 2024-11-20 02:31:31 0.0001000628 663.0 (m) PAYLOAD
FENGYUN 1C DEB SSO 2024-06-07 01:44:54 0.0001115613 240.0 (m) DEBRIS

Associated space launch

Poppy was the follow-on ELINT system, which succeeded the Grab ELINT satellite system.

THORAD AGENA D DEB was lifted into orbit during the mission ‘Thorad SLV-2G Agena D | Poppy 8A,B,C,D’, on board a Thorad SLV-2G Agena D space rocket.

The launch took place on Sept. 30, 1969, 1:40 p.m. from Space Launch Complex 1W.

For more information about the launch, click the button.

Launch to space Thorad SLV-2G Agena D | Poppy 8A,B,C,D
Thorad SLV-2G Agena D | Poppy 8A,B,C,D

Agency: N/A

Status: Launch Successful

Launch date: Sept. 30, 1969, 1:40 p.m. UTC

Rocket: Thorad SLV-2G Agena D

Launch pad: Space Launch Complex 1W

Location: Vandenberg SFB, CA, USA

...

Latest news about this satellite

There are no fresh news available about this satellite. Check back as we update our databases every day.


Newsletter sign-up

Weekly statistics, charts and insights to help you stay on top of the space industry.